Погода в Батарейной

Россия / Иркутская область     52°23′19″N   104°08′30″E
темп.,
°C
ветер,
м/с
пор.,
м/с
влажн.,
%
обл.,
%
осадки,
мм/ч
давл.,
гПа
погр.,
м
20 июня, вс
вс2023:00+18зюз015366 0.0 100311
02:00+16ю115948 0.0 100310
05:00+13юв11715 0.0 100310
08:00+18ююв23635 0.0 1003199
11:00+24ююв35433 0.0 1002655
14:00+28ю34355 0.0 10001274
17:00+27ююз55410 0.0 1000759
20:00+20ююв59620 0.0 1002234
21 июня, пн
пн2123:00+14ююв39694 0.0 1003157
02:00+12вюв34775 0.0 100480
05:00+11вюв24801 0.0 100370
08:00+16юв47680 0.0 1003321
11:00+24ююв46505 0.0 1001814
14:00+27ю46434 0.0 1000958
17:00+29ю35440 0.0 998889
20:00+22юз356391 0.0 100082
22 июня, вт
вт2223:00+15сз9159298 1.4 1007568
02:00+13зсз61193100 1.6 1009729
05:00+11зсз61193100 0.0 1011658
08:00+10зсз5992100 0.0 1012563
11:00+11зсз4686100 0.0 1013512
14:00+15зсз2373100 0.0 1012751
17:00+18зсз116475 0.0 1009884
20:00+18ююв117594 0.0 100825
23 июня, ср
ср2323:00+14юз1181100 0.1 101010
02:00+13ююв1291100 0.6 100815
05:00+13юв1193100 0.1 100814
08:00+17вюв348119 0.1 1008333
11:00+22юв346079 0.0 1006959
14:00+26ююв125066 0.0 10051313
17:00+26с2251100 0.0 10051116
20:00+21сз71274100 0.0 1006491
24 июня, чт
чт2423:00+14зсз61086100 0.0 1009433
02:00+13сз2593100 0.8 1008262
05:00+13з2398100 1.0 1007350
08:00+14юз1192100 1.3 1006371
11:00+15сз2289100 1.3 1006567
14:00+14зсз5791100 2.0 1007681
17:00+14сз588258 0.1 1009699
20:00+16ссз257533 0.1 1009401